Wind_Speed
23 24 23 20 17 14 12 12 9 7 5 4 4 4 4 4 3 3 2 1 0 0 1 1 1 0 0 1 2 4 4 5 6 6 6 6 6 6 7 7 8 8 8 8 8 8 8 8 9
24 25 24 22 20 15 14 14 11 8 5 4 3 3 3 2 2 1 1 2 2 2 2 2 2 2 2 1 0 2 3 3 4 4 5 5 5 6 6 6 7 7 7 7 7 8 8 9 10
24 25 26 25 24 20 17 17 14 10 6 4 3 3 3 2 1 2 3 4 4 4 4 4 4 3 2 2 1 1 2 2 3 4 5 5 5 5 5 6 6 6 6 7 7 8 8 9 10
22 24 26 27 25 23 22 19 16 11 7 5 4 2 2 1 2 3 4 4 5 4 5 5 5 4 3 2 2 1 2 2 3 4 5 5 6 6 6 6 6 7 7 7 7 8 9 9 10
20 23 25 26 25 24 23 20 17 12 9 6 5 3 2 1 2 4 4 5 5 5 6 6 6 5 4 3 3 2 2 3 4 5 6 6 7 7 7 7 7 7 7 8 8 9 9 10 10
18 20 22 23 25 26 24 21 18 13 10 8 5 4 3 3 4 5 6 6 6 7 7 7 6 6 5 4 3 3 3 3 4 5 6 7 7 8 8 8 8 9 8 8 9 9 10 10 11
16 18 18 21 26 27 25 24 20 15 11 9 6 5 5 4 5 6 7 7 7 8 8 8 7 6 6 5 4 3 3 3 4 5 6 7 8 8 9 9 9 10 10 10 10 10 11 11 12
13 15 18 22 25 26 27 25 21 17 13 11 8 7 7 6 6 7 7 7 7 7 7 7 6 6 6 5 5 4 4 4 4 5 6 7 8 9 10 10 10 10 10 10 11 11 11 12 12
14 14 16 21 25 27 29 26 23 18 15 12 11 10 9 8 8 7 7 6 5 5 5 5 5 5 6 5 5 5 5 5 5 6 7 8 9 10 11 11 12 12 11 12 12 12 12 13 13
14 13 17 23 27 30 29 27 22 19 16 14 12 12 10 10 9 7 6 5 3 2 3 3 4 5 5 5 6 6 6 7 7 8 8 9 10 11 12 12 13 13 13 13 13 13 14 14 15
16 15 20 24 27 29 28 26 22 20 17 16 15 13 12 10 10 7 6 4 2 1 2 3 4 6 6 7 7 8 8 8 9 10 10 11 12 13 14 14 15 15 15 15 15 15 15 16 16
19 18 21 25 27 27 27 25 22 20 19 18 16 15 13 12 11 8 6 4 2 2 4 5 6 7 8 9 10 10 10 11 11 12 12 13 14 15 16 16 17 17 17 18 18 18 18 18 19
22 22 23 24 25 25 25 25 22 21 20 18 17 16 15 14 12 11 8 7 5 5 6 7 8 10 10 11 12 12 13 14 14 15 16 16 17 18 19 19 20 21 21 21 21 21 21 21 22
24 24 24 24 24 24 25 24 22 22 21 19 18 17 16 16 15 13 11 10 9 8 9 10 11 12 13 14 14 15 15 15 16 18 19 20 21 22 23 23 24 24 24 24 24 24 24 25 25
26 25 25 24 24 24 24 23 22 22 21 20 19 18 16 16 16 15 15 13 12 11 11 12 13 14 15 16 16 17 17 18 19 21 22 24 25 26 27 27 28 28 28 28 28 27 27 27 27
27 27 26 27 26 25 24 23 24 23 22 22 21 20 19 16 16 16 16 16 16 15 15 15 15 17 18 18 19 19 20 21 22 24 25 27 28 29 30 31 32 32 32 32 31 30 29 29 29
28 28 28 29 28 27 26 26 26 23 23 23 23 22 21 19 18 18 18 19 19 19 19 19 19 19 20 21 23 23 24 25 27 29 29 29 31 32 32 33 34 35 35 35 34 33 31 29 28
29 29 30 31 31 30 30 30 28 26 25 25 24 23 23 20 19 20 21 23 23 23 23 23 22 22 23 24 26 26 28 30 32 32 31 31 33 34 34 33 34 33 33 32 32 31 28 28 28
31 31 32 33 33 32 33 33 32 31 29 28 27 27 25 23 23 23 24 26 27 27 27 27 26 25 26 27 28 30 32 34 36 35 35 33 33 33 31 31 31 30 31 29 28 28 28 28 27
32 32 33 34 35 35 36 35 35 34 33 32 31 30 29 28 27 27 27 28 29 30 30 30 29 29 30 31 32 33 36 37 38 38 36 35 33 31 27 26 27 27 27 27 27 25 25 25 27
33 33 33 34 36 36 37 36 37 37 37 36 35 34 33 32 31 30 30 30 30 31 32 32 31 31 33 34 35 35 37 39 41 41 39 37 33 28 26 26 25 25 25 27 27 27 27 29 30
33 33 34 35 36 37 39 37 37 39 39 38 38 37 37 36 34 34 33 31 31 32 32 33 33 33 35 36 36 37 39 41 42 42 40 37 31 29 26 24 24 24 25 27 29 30 31 33 35
33 33 34 35 36 38 39 38 35 38 39 39 39 39 39 38 36 35 34 33 33 33 33 34 35 35 36 37 38 39 41 42 42 41 39 35 32 29 29 29 27 27 28 30 32 33 35 37 39
33 34 34 35 36 38 37 37 35 37 38 39 40 39 39 38 37 36 35 34 34 35 35 36 37 38 39 39 40 41 42 42 42 40 39 38 34 32 32 31 31 31 33 34 36 38 40 42 45
33 32 32 32 34 33 34 36 35 40 37 37 38 38 38 37 36 35 35 35 35 36 37 37 38 39 40 41 42 42 42 42 42 41 40 38 36 35 34 35 36 37 38 40 41 44 46 48 49
30 30 29 25 23 24 31 32 37 37 35 34 34 35 35 35 34 34 34 34 35 35 35 36 37 39 40 41 42 42 42 41 40 41 40 40 39 39 39 40 41 42 44 45 47 49 50 51 52
28 29 27 28 26 23 22 31 35 33 32 31 31 31 30 30 30 30 30 31 31 32 33 35 36 38 39 40 41 42 42 41 41 41 41 41 42 43 44 45 45 46 48 50 50 51 53 54 55
26 25 28 30 27 23 22 24 27 30 28 27 27 27 27 27 27 27 27 28 29 30 32 33 35 37 38 40 41 42 42 42 42 43 43 44 46 47 48 48 49 51 52 53 53 54 55 56 57
25 27 28 27 25 22 19 21 27 27 26 25 25 25 25 25 25 26 27 27 29 30 32 33 35 36 38 39 40 41 42 42 44 45 47 48 50 51 52 52 53 54 54 55 55 55 56 56 57
23 24 26 26 26 26 21 23 26 25 24 24 24 24 24 24 24 25 27 28 29 31 33 34 35 37 38 39 40 42 43 45 46 48 50 51 53 55 55 56 56 56 56 56 57 57 57 57 57
Wind_Direction
212 208 207 205 203 205 212 214 213 215 227 243 255 256 255 262 270 277 277 254 240 211 195 161 135 89 349 267 255 250 249 253 254 256 259 259 260 259 257 254 253 253 254 255 259 262 265 269 272
215 212 211 209 206 205 220 219 216 218 232 247 261 259 254 257 256 220 139 110 104 100 101 100 90 71 57 60 255 250 248 247 244 246 250 256 258 255 252 251 249 250 250 252 255 258 262 266 269
219 216 213 211 210 208 215 220 220 219 228 245 257 270 270 248 201 132 111 100 93 91 89 85 79 71 62 47 360 269 243 239 240 241 245 249 250 249 247 246 245 245 246 248 251 255 259 262 265
221 219 217 214 212 215 218 220 223 222 228 236 246 264 265 208 147 114 101 96 89 82 78 72 69 63 48 20 347 304 267 253 247 244 242 242 242 243 243 244 243 242 242 243 246 251 256 260 264
223 222 220 216 212 217 220 223 223 222 224 233 238 242 230 181 124 107 98 92 87 80 74 71 65 58 44 27 7 334 300 275 261 252 246 244 243 244 244 244 244 244 245 246 248 251 256 259 263
226 224 222 215 212 218 220 222 221 219 222 227 231 222 203 167 127 113 103 98 92 82 78 72 65 58 48 34 14 350 318 292 274 264 258 254 252 251 250 250 251 253 253 253 255 257 259 261 265
228 225 217 210 211 216 219 222 221 218 218 223 224 211 199 163 133 122 110 105 98 90 81 71 67 58 46 36 20 358 331 306 288 278 273 268 263 260 259 260 260 260 260 260 260 262 264 266 268
227 223 212 207 209 213 220 222 220 219 217 221 218 209 199 174 148 133 119 112 102 90 78 69 62 53 41 28 13 0 343 321 302 288 281 277 273 270 269 268 266 264 264 264 265 266 268 270 271
226 223 210 205 208 212 220 222 221 218 215 216 216 213 207 185 168 147 132 120 105 85 68 61 55 44 34 21 8 358 346 332 320 305 293 286 282 279 276 274 272 270 269 269 269 269 270 272 273
227 222 211 209 209 213 219 222 221 217 216 215 217 218 212 196 181 164 149 137 112 82 49 39 27 15 11 3 355 348 341 333 325 315 304 294 287 283 279 277 275 275 274 273 272 272 272 273 275
226 222 217 213 215 218 221 224 221 216 213 215 218 218 215 211 200 188 180 170 136 35 357 350 350 348 347 343 339 337 331 326 320 313 304 298 293 287 283 279 276 275 274 272 272 272 273 275 276
225 224 223 220 221 222 224 227 225 217 216 218 220 222 227 227 216 209 213 214 241 306 319 319 326 332 332 332 331 329 324 319 314 308 301 296 291 287 284 279 275 273 271 270 269 270 272 273 274
227 227 228 228 226 227 228 230 229 222 222 224 227 229 234 239 234 230 235 246 263 283 299 305 312 319 322 322 324 324 319 314 309 305 300 294 290 286 282 279 275 272 270 269 268 269 270 271 272
230 232 234 234 232 232 232 232 231 227 225 226 230 234 239 243 245 245 245 252 262 274 286 297 303 308 314 316 315 315 314 309 304 300 297 293 290 286 281 277 274 271 269 268 267 267 270 272 272
233 234 237 238 236 235 235 234 233 230 229 230 232 235 238 245 249 249 250 254 261 269 279 290 295 301 306 308 306 307 307 306 302 298 294 291 288 285 279 275 272 271 269 268 269 267 269 272 272
234 235 237 239 238 236 235 235 235 232 232 233 234 237 240 246 249 250 252 257 261 267 273 280 287 294 298 301 300 302 302 300 298 296 292 289 285 282 278 275 273 271 269 267 267 267 270 272 274
234 234 235 239 239 238 235 232 236 233 234 235 237 241 244 247 253 255 256 259 261 265 269 274 279 286 292 295 297 299 300 298 296 293 289 288 287 283 278 275 273 270 269 269 267 267 271 274 276
234 233 234 236 238 237 237 235 239 238 236 237 239 243 247 250 257 260 259 260 262 264 268 272 276 280 285 290 293 294 295 292 292 293 292 292 288 284 281 279 275 272 273 273 270 272 274 276 279
234 233 232 234 237 237 238 238 239 242 241 241 242 245 248 253 258 261 263 264 264 265 268 271 273 275 280 284 286 289 290 291 295 294 296 294 292 289 286 284 285 280 279 279 281 280 279 281 282
236 234 233 235 237 238 240 240 241 243 244 244 246 248 250 254 258 262 265 263 263 264 266 269 271 275 278 280 284 287 290 292 295 298 299 301 299 295 295 291 289 286 287 286 288 286 286 285 285
237 235 234 234 236 239 241 243 244 245 246 247 249 251 254 256 259 263 266 264 262 262 264 266 268 272 275 279 283 288 291 294 296 299 301 304 306 303 301 297 296 293 293 291 289 290 291 290 291
236 235 234 234 235 238 240 240 245 246 247 249 251 253 256 258 261 263 266 264 262 262 263 264 267 271 274 278 284 288 292 294 297 299 302 307 308 308 306 301 298 293 294 296 296 293 295 296 294
235 234 234 235 236 237 242 241 242 249 249 251 253 254 257 259 261 263 265 263 261 261 262 263 266 270 274 278 282 286 289 292 295 297 299 304 308 308 307 305 303 295 296 298 297 297 298 298 297
233 234 235 236 238 240 242 244 242 248 249 251 253 256 258 259 261 262 262 260 259 260 261 263 266 268 272 276 280 284 287 289 292 295 296 299 303 305 305 305 303 301 300 300 298 299 300 298 297
233 233 234 236 239 242 243 244 243 248 250 251 252 255 257 259 260 260 260 258 258 259 260 262 264 267 270 274 278 281 284 286 289 292 296 298 301 304 304 303 303 302 301 301 298 297 297 296 295
233 233 230 230 239 242 246 244 245 250 251 251 251 253 255 257 258 258 258 257 258 258 259 260 263 265 268 272 275 279 281 284 288 291 295 298 301 303 304 303 303 302 301 299 298 296 296 295 294
228 229 228 229 229 227 239 246 247 249 250 250 251 252 254 255 256 256 256 256 256 256 257 259 261 263 267 270 274 277 280 285 290 293 296 299 300 301 302 302 301 301 300 299 298 297 295 293 292
224 225 226 227 229 233 239 251 251 248 248 249 251 252 254 255 255 255 255 255 255 256 257 259 261 263 266 270 274 278 282 287 290 293 296 298 299 300 300 301 300 300 299 298 296 295 294 293 292
223 223 226 228 227 229 238 244 248 250 248 249 250 252 253 254 254 255 256 256 256 257 259 260 263 266 269 273 276 280 283 288 291 294 296 297 298 299 300 301 300 300 298 297 295 295 294 293 292
222 224 226 227 231 232 227 242 249 250 249 249 250 252 254 255 256 257 257 258 259 260 262 264 267 269 272 275 278 283 286 289 293 295 296 297 298 299 299 299 299 298 297 297 296 295 295 294 293
Height
5892 5895 5897 5900 5903 5906 5907 5906 5906 5907 5906 5906 5905 5904 5903 5903 5903 5904 5901 5899 5899 5898 5898 5897 5897 5898 5898 5898 5898 5898 5898 5898 5898 5898 5898 5898 5898 5898 5899 5899 5899 5899 5900 5900 5900 5901 5901 5901 5901
5890 5892 5895 5898 5901 5904 5906 5904 5905 5905 5905 5905 5904 5903 5902 5901 5900 5900 5899 5898 5898 5897 5897 5897 5896 5896 5897 5897 5897 5897 5897 5897 5897 5897 5897 5897 5897 5897 5897 5897 5897 5897 5898 5898 5898 5898 5898 5898 5898
5887 5889 5892 5895 5897 5900 5902 5902 5903 5904 5904 5903 5903 5902 5902 5901 5900 5899 5898 5898 5897 5897 5896 5896 5895 5896 5896 5896 5896 5896 5896 5896 5896 5896 5895 5895 5895 5895 5895 5895 5895 5896 5896 5896 5896 5896 5896 5896 5896
5883 5886 5889 5892 5894 5897 5898 5899 5900 5902 5902 5902 5902 5902 5901 5900 5899 5898 5897 5897 5897 5896 5896 5895 5895 5895 5895 5895 5895 5895 5895 5895 5895 5895 5894 5894 5894 5893 5893 5893 5893 5894 5894 5894 5894 5894 5894 5894 5893
5880 5883 5885 5888 5891 5893 5895 5896 5898 5900 5901 5901 5901 5901 5900 5899 5898 5897 5897 5896 5896 5896 5895 5895 5895 5895 5895 5894 5894 5894 5894 5894 5894 5893 5893 5893 5892 5892 5892 5892 5892 5892 5892 5892 5892 5892 5892 5891 5891
5877 5879 5882 5884 5888 5890 5892 5894 5896 5898 5899 5900 5900 5900 5899 5898 5897 5897 5896 5896 5896 5895 5895 5895 5894 5894 5894 5894 5893 5893 5893 5892 5892 5892 5892 5891 5891 5891 5891 5890 5890 5890 5890 5890 5890 5890 5890 5890 5889
5874 5876 5878 5881 5884 5886 5889 5890 5893 5896 5898 5899 5899 5899 5898 5898 5897 5896 5896 5896 5895 5895 5895 5895 5894 5894 5893 5893 5893 5892 5892 5891 5891 5890 5890 5890 5890 5889 5889 5889 5889 5889 5889 5889 5888 5888 5888 5887 5887
5870 5873 5874 5877 5880 5883 5885 5886 5890 5893 5895 5897 5897 5898 5898 5897 5896 5896 5895 5895 5895 5895 5895 5894 5894 5893 5893 5892 5892 5891 5891 5890 5889 5889 5889 5888 5888 5888 5887 5887 5887 5886 5886 5886 5886 5885 5885 5885 5884
5867 5870 5871 5874 5876 5879 5880 5883 5887 5890 5893 5895 5896 5896 5897 5896 5896 5895 5895 5895 5895 5894 5894 5894 5893 5892 5892 5891 5891 5890 5889 5889 5888 5887 5887 5886 5886 5885 5885 5884 5884 5884 5883 5883 5883 5882 5882 5881 5881
5864 5867 5869 5870 5872 5874 5876 5879 5883 5887 5890 5893 5894 5895 5895 5895 5895 5894 5894 5894 5894 5894 5893 5893 5892 5891 5891 5890 5889 5888 5888 5887 5886 5886 5885 5884 5883 5883 5882 5881 5881 5881 5880 5880 5880 5879 5879 5878 5877
5862 5864 5864 5865 5867 5870 5872 5876 5880 5884 5888 5890 5892 5893 5893 5894 5894 5893 5893 5893 5893 5893 5892 5891 5891 5890 5889 5889 5888 5887 5886 5885 5885 5884 5883 5882 5881 5880 5879 5878 5877 5877 5877 5876 5876 5875 5875 5875 5874
5858 5859 5860 5862 5864 5867 5870 5873 5877 5881 5885 5887 5889 5891 5892 5892 5892 5892 5892 5892 5891 5891 5891 5890 5889 5888 5888 5887 5886 5885 5884 5883 5882 5881 5880 5879 5878 5877 5876 5875 5874 5873 5873 5872 5872 5871 5871 5870 5870
5854 5856 5857 5859 5862 5864 5867 5870 5874 5878 5881 5884 5886 5888 5890 5890 5891 5891 5891 5890 5890 5889 5889 5888 5887 5887 5886 5885 5884 5883 5882 5881 5880 5879 5878 5876 5875 5874 5873 5871 5870 5869 5868 5868 5867 5867 5866 5865 5865
5851 5853 5854 5856 5859 5861 5864 5867 5871 5875 5878 5881 5883 5886 5887 5888 5888 5889 5889 5888 5888 5887 5887 5886 5885 5884 5883 5882 5881 5880 5879 5878 5877 5876 5875 5873 5872 5870 5869 5867 5866 5865 5864 5863 5862 5861 5861 5860 5860
5847 5850 5852 5853 5856 5858 5861 5865 5868 5871 5874 5877 5880 5882 5884 5885 5886 5886 5886 5886 5886 5885 5885 5884 5883 5882 5881 5880 5879 5877 5876 5875 5874 5872 5871 5869 5867 5865 5863 5862 5861 5859 5858 5857 5856 5855 5855 5854 5853
5843 5846 5848 5850 5852 5855 5859 5862 5865 5867 5870 5873 5876 5878 5880 5882 5882 5883 5883 5883 5883 5883 5882 5881 5880 5879 5878 5877 5875 5874 5873 5871 5869 5867 5865 5863 5861 5859 5857 5856 5854 5852 5851 5850 5850 5849 5848 5847 5846
5838 5841 5844 5845 5848 5851 5855 5859 5860 5863 5866 5869 5872 5874 5876 5878 5879 5880 5880 5880 5880 5879 5879 5878 5877 5876 5874 5873 5871 5870 5869 5867 5864 5862 5859 5857 5855 5853 5850 5848 5846 5845 5844 5843 5842 5842 5841 5840 5840
5833 5836 5838 5840 5842 5846 5850 5853 5855 5858 5862 5865 5867 5870 5872 5874 5875 5875 5876 5876 5876 5875 5875 5874 5873 5872 5870 5868 5867 5865 5863 5860 5858 5856 5854 5851 5848 5845 5842 5841 5839 5837 5836 5835 5835 5834 5833 5833 5832
5826 5830 5832 5835 5837 5841 5844 5847 5850 5852 5856 5859 5862 5864 5867 5869 5870 5870 5871 5871 5871 5871 5871 5870 5869 5868 5866 5864 5862 5860 5857 5854 5852 5850 5848 5845 5842 5839 5836 5834 5832 5830 5830 5829 5828 5827 5826 5825 5824
5819 5824 5827 5829 5831 5835 5837 5841 5844 5847 5850 5853 5855 5858 5861 5863 5864 5865 5866 5866 5866 5866 5866 5865 5864 5863 5861 5859 5857 5855 5852 5849 5846 5843 5841 5838 5835 5832 5830 5828 5826 5825 5823 5822 5821 5820 5819 5818 5817
5813 5817 5821 5823 5825 5828 5832 5836 5838 5841 5843 5846 5849 5851 5854 5856 5858 5858 5859 5859 5860 5860 5860 5860 5859 5858 5855 5853 5852 5850 5847 5843 5842 5839 5835 5832 5829 5827 5825 5823 5820 5819 5817 5816 5815 5815 5813 5811 5810
5806 5810 5814 5817 5820 5823 5826 5830 5832 5833 5836 5838 5841 5844 5846 5848 5850 5851 5852 5852 5853 5854 5854 5854 5853 5852 5850 5848 5846 5844 5841 5839 5836 5833 5830 5827 5825 5823 5820 5818 5815 5813 5812 5810 5809 5808 5806 5804 5801
5799 5803 5807 5811 5814 5817 5818 5823 5827 5826 5828 5830 5833 5835 5838 5840 5842 5843 5844 5845 5846 5847 5847 5847 5847 5846 5844 5843 5841 5838 5836 5833 5830 5827 5824 5822 5819 5817 5814 5812 5810 5808 5807 5804 5802 5800 5797 5795 5792
5792 5797 5801 5804 5807 5811 5813 5816 5820 5819 5820 5823 5825 5827 5829 5832 5833 5835 5836 5838 5839 5840 5840 5840 5839 5838 5837 5835 5833 5831 5828 5826 5823 5820 5817 5815 5813 5810 5808 5806 5804 5802 5799 5797 5794 5791 5788 5785 5781
5786 5792 5796 5799 5802 5805 5806 5809 5812 5810 5814 5816 5818 5820 5822 5823 5825 5827 5828 5829 5831 5831 5832 5832 5831 5830 5829 5827 5825 5823 5820 5818 5815 5812 5810 5807 5805 5802 5800 5798 5795 5793 5790 5787 5784 5781 5777 5773 5769
5780 5786 5792 5797 5800 5802 5800 5802 5802 5804 5807 5809 5811 5813 5814 5816 5817 5819 5820 5821 5822 5823 5823 5823 5823 5822 5820 5819 5816 5814 5812 5809 5807 5804 5801 5799 5796 5794 5791 5788 5785 5782 5779 5776 5772 5768 5764 5759 5755
5774 5779 5784 5789 5791 5796 5797 5794 5796 5797 5800 5802 5804 5805 5807 5808 5810 5811 5812 5813 5814 5815 5815 5815 5814 5813 5812 5810 5808 5806 5803 5800 5798 5795 5792 5789 5786 5783 5780 5777 5774 5770 5767 5763 5759 5754 5750 5745 5740
5769 5773 5776 5780 5785 5789 5792 5791 5791 5792 5794 5796 5797 5799 5800 5801 5802 5804 5805 5805 5806 5807 5807 5807 5806 5805 5803 5801 5799 5797 5794 5791 5788 5785 5782 5779 5776 5772 5768 5765 5761 5758 5753 5749 5744 5740 5735 5730 5724
5763 5767 5770 5775 5780 5784 5789 5791 5784 5786 5788 5790 5791 5792 5794 5795 5796 5797 5797 5798 5799 5799 5799 5798 5797 5796 5794 5792 5790 5787 5784 5781 5778 5774 5771 5767 5764 5760 5756 5752 5747 5743 5739 5734 5729 5724 5719 5714 5708
5759 5762 5766 5770 5773 5775 5781 5783 5779 5780 5782 5784 5785 5786 5787 5788 5789 5789 5790 5790 5790 5790 5789 5789 5788 5786 5784 5782 5780 5777 5774 5770 5767 5763 5759 5755 5751 5747 5742 5738 5733 5728 5724 5718 5714 5709 5703 5698 5692